星链-4754 (STARLINK-4754 )

导读

STARLINK-4754是美国太空探索技术公司(SpaceX)星链(Starlink)星座中的一颗低轨互联网通信卫星,于2022年9月19日发射入轨。星链是全球规模最大的低轨卫星互联网星座,旨在为全球提供泛在、高速的卫星互联网服务,覆盖偏远地区、海事、航空等多场景应用,STARLINK-4754的入轨进一步扩充了星链星座的网络覆盖与通信容量。

Basic Information
目录编号:
53842
目录名称:
STARLINK-4754
国际标识:
2022-114AA
轨道中心:
EARTH
卫星名称:
星链-4754
卫星全名:
星链-4754 (STARLINK-4754 )
卫星状态:
在轨 (已飞行1454 天)
发射日期:
2022-09-19 UTC
国别 :
美国 (US)
星等 :
--
This satellite is enrolled in the Space Conjunction Data Service (SCDS) and the current flight risk assessment level is: No High Risk
Orbit Information
数据来源 国际轨道数据 AOE轨道数据
星历时间 2026-09-12T12:00:02+0800
7小时前
查看轨道信息
2026-09-06T23:00:00+0800
5天前
查看轨道信息
半长轴 6911.205km 6917.903km
偏心率 0.0000739 0.0001452
轨道倾角 53.160° 53.159°
近地点辐角 30.313° 56.031°
升交点赤经 176.324° 201.262°
平近点角 347.019° 68.799°
近地点 532.557km 538.761km
远地点 533.579km 540.771km
周期 95.299分钟 95.438分钟
每日圈数 15.110268 15.088329
Detailed Information
固有亮度:
5
最大亮度:
2.5
卫星平台:
Starlink v1.5
覆盖范围:
全球
运营商:
太空探索技术公司
运营商所在国:
美国
制造商(研发单位):
太空探索技术公司
制造商所在国:
美国
使用方式:
暂无
Satellite Introduction
星链(Starlink)计划是由太空探索技术公司(SpaceX)提出的一个巨型低轨卫星互联网星座项目,计划在2019年至2024年间在太空搭建由约1.2万颗卫星组成的“星链”网络,其中1584颗将部署在地球上空550千米处的近地轨道,并从2020年开始工作。该卫星仍在工作。
2D Orbit Map
3D Orbit Map
Orbit Altitude Analysis Chart
Orbit Inclination Analysis Chart
Orbit Comprehensive Analysis Chart
View Comprehensive Chart
Conjunction Data List
Event ID Objects TCA Miss Dist (km) Collision Risk Probability Collision Risk Index (CRI) Action
CDM_260913-220504-902705-384221
2026-09-13T
22:05:17+0000
1.350 km
极远距离
7.270553E-6 低风险 0.52
CDM_260912-122705-384206-820021
OBJECT C (68200)
2026-09-12T
12:27:26+0000
2.865 km
极远距离
1.396739E-6 低风险 0.38
Miss Distance Evolution Trend with All Objects
Collision Probability Evolution Trend with All Objects